Location: Mt. Bigelow
(32.4165°N, 110.7345°W)
Time: 02:36:19
(UTC-07:00)

N. Korean satellite - Pass Details

Date: 22 February 2019
Orbit: 456 x 510 km, 97.2° (Epoch: 20 March)

Event Time Altitude Azimuth Distance (km) Brightness Sun altitude
Rises 06:13:21 0° 17° (NNE) 2,477 10.3 -10.3°
Reaches altitude 10° 06:15:27 10° 23° (NNE) 1,595 9.4 -9.8°
Maximum altitude 06:18:46 48° 99° (E) 596 7.6 -9.1°
Drops below altitude 10° 06:22:03 10° 176° (S) 1,580 9.3 -8.4°
Sets 06:24:07 0° 181° (S) 2,450 10.2 -8.0°
